Starlink 31634

operational
NORAD ID: 59330 Int'l Des: 2024-057 Owner: SPXS Country: US Constellation: starlink
LEOCIRCULAR

Starlink 31634について

説明を読み込み中...

リアルタイム位置

3D地球を読み込み中...

次回通過

高度履歴

Altitude vs Time

uPlot chart will show altitude changes over time

軌道要素

1 59330U 24057L 25354.16101735 -.00001216 00000-0 -34670-4 0 9997
2 59330 43.0029 276.4293 0001136 271.5473 88.5248 15.27575044 97677
Epoch: Dec 20, 2025 • Age: 10 hours

現在のステータス

高度 482.4 km
速度 7.63 km/s
衛星直下点 7.14°N, 146.68°E
打ち上げ日 Mar 25, 2024
運用期間 1.7 years
タイプ internet

技術仕様

分類 Payload
質量 730.00 kg
乾燥質量 700.00 kg
総質量 730.00 kg
長さ 0.30 m
直径 4.10 m
スパン 29.00 m
形状 Box + pan
製造者 SPXS
バスタイプ Starlink V2M
フェーズステータス In Orbit
所有者/国 SPXS/US

大規模コンステレーション

Loading constellations...